CAPE
0 0 0 0 0 0 0 0 0 0 0 0 0 0 0 0 0 0 0 0 0 0
0 0 0 0 0 0 0 0 0 0 0 0 0 0 0 0 0 0 0 0 0 0
0 0 0 0 0 0 0 0 0 0 0 0 0 0 0 0 0 0 0 0 0 0
0 0 0 0 0 0 0 0 0 0 0 0 0 0 0 0 0 0 0 0 0 0
0 0 0 0 0 0 0 0 0 0 0 0 0 0 0 0 0 0 0 0 0 0
0 0 0 0 0 0 0 0 0 0 0 0 0 0 0 0 0 0 0 0 0 0
0 0 0 0 0 0 0 0 0 0 0 0 0 0 0 0 0 0 0 0 0 0
0 0 0 0 0 0 0 0 0 0 0 0 0 0 0 0 0 0 0 0 0 0
0 0 0 0 0 0 0 0 0 0 0 0 0 0 1 6 0 0 0 0 0 0
0 0 0 0 0 0 0 0 0 0 0 0 0 0 3 16 0 0 0 0 0 0
0 0 0 0 0 0 0 0 0 0 0 0 0 0 8 8 0 0 0 0 0 0
0 0 0 0 0 0 0 0 0 0 0 0 0 0 0 1 0 1 5 7 2 0
0 0 0 0 0 0 0 0 0 0 0 0 0 0 3 4 4 4 2 3 0 25
0 0 0 0 0 0 0 0 0 0 0 0 0 0 0 21 14 9 3 1 0 0
CIN
-0 -0 -0 -0 -0 -0 -0 -0 -0 -0 -0 -0 -0 -0 -0 -0 -0 -0 -0 -0 -0 -0
-0 -0 -0 -0 -0 -0 -0 -0 -0 -0 -0 -0 -0 -0 -0 -0 -0 -0 -0 -0 -0 -0
-0 -0 -0 -0 -0 -0 -0 -0 -0 -0 -0 -0 -0 -0 -0 -0 -0 -0 -0 -0 -0 -0
-0 -0 -0 -0 -0 -0 -0 -0 -0 -0 -0 -0 -0 -0 -0 -0 -0 -0 -0 -0 -0 -0
-0 -0 -0 -0 -0 -0 -0 -0 -0 -0 -0 -0 -0 -0 -0 -0 -0 -0 -0 -0 -0 -0
-0 -0 -0 -0 -0 -0 -0 -0 -0 -0 -0 -0 -0 -0 -0 -0 -0 -0 -0 -0 -0 -0
-0 -0 -0 -0 -0 -0 -0 -0 -0 -0 -0 -0 -0 -0 -0 -0 -0 -0 -0 -0 -0 -0
-0 -0 -0 -0 -0 -0 -0 -0 -0 -0 -0 -0 -0 -0 -0 -0 -0 -0 -0 -0 -0 -0
-0 -0 -0 -0 -0 -0 -0 -0 -0 -0 -0 -0 -0 -0 -0 -7 -0 -0 -0 -0 -0 -0
-0 -0 -0 -0 -0 -0 -0 -0 -0 -0 -0 -0 -0 -0 -0 -0 -3 -0 -0 -0 -0 -0
-0 -0 -0 -0 -0 -0 -0 -0 -0 -0 -0 -0 -0 -0 -0 -0 -0 -0 -0 -1 -0 -0
-0 -0 -0 -0 -0 -0 -0 -0 -0 -0 -0 -0 -0 -0 -0 -3 -15 -27 -11 -14 -20 -0
-0 -0 -0 -0 -0 -0 -0 -0 -0 -0 -0 -0 -0 -0 -0 -4 -7 -9 -11 -7 -0 -0
-0 -0 -0 -0 -0 -0 -0 -0 -0 -0 -0 -0 -0 -0 -0 -0 -1 -2 -4 -14 -0 -0
Wind_Speed
7 5 4 5 4 4 3 4 6 6 6 6 5 3 3 1 0 2 2 4 3 2
6 6 6 7 7 6 6 5 7 6 5 5 4 3 2 1 2 3 3 4 3 2
7 7 6 7 7 8 7 6 6 4 4 3 1 2 1 2 3 3 4 3 4 3
7 6 7 7 7 7 6 6 4 4 2 1 1 2 2 4 5 4 4 4 5 6
7 8 8 6 6 6 5 5 2 3 3 2 3 3 3 4 5 5 6 6 6 6
6 6 6 7 6 5 2 1 1 4 4 4 3 3 4 4 5 5 6 6 6 7
7 7 6 6 4 3 2 1 2 2 1 1 3 4 5 5 5 5 5 6 6 7
7 6 5 2 1 1 2 3 3 3 4 4 4 3 4 3 4 5 6 7 7 9
5 5 2 2 3 3 4 4 4 5 4 4 3 10 15 10 4 6 6 7 8 6
4 2 2 3 3 3 4 4 5 4 4 5 5 12 16 16 7 4 5 7 8 8
3 3 3 4 4 5 4 4 4 5 5 5 4 15 17 17 5 5 7 10 11 9
5 4 4 4 4 4 4 4 4 4 5 6 6 14 17 15 3 5 9 9 10 11
4 3 3 3 4 3 3 4 4 5 6 9 7 11 14 14 6 8 7 8 11 17
3 3 3 2 2 3 4 5 5 6 5 6 5 7 17 19 9 7 8 7 7 6
Wind_Direction
126 132 146 148 130 142 122 110 111 87 81 101 118 115 107 97 283 262 287 292 287 268
95 88 92 84 77 83 94 102 84 97 87 81 85 93 86 61 322 332 309 292 288 270
108 91 91 87 88 89 87 86 101 96 87 95 38 339 329 253 254 252 264 251 263 269
95 109 96 93 95 98 105 107 101 109 117 318 301 311 326 302 293 293 288 289 272 268
86 89 95 111 112 118 121 115 127 76 37 346 316 310 309 303 306 294 292 287 293 283
92 94 93 91 81 92 95 128 206 164 201 233 259 305 301 293 293 295 292 288 285 279
91 78 71 60 55 42 10 341 315 295 301 352 320 292 279 273 279 300 310 309 302 293
79 68 75 100 200 315 359 351 328 321 304 273 260 255 278 284 294 306 298 287 290 290
71 79 57 13 355 353 336 317 291 275 278 304 289 301 302 305 266 272 280 286 288 281
90 73 24 352 333 310 284 270 280 310 326 308 303 304 299 298 296 277 276 274 274 284
60 32 4 13 358 343 346 343 333 324 316 319 308 308 301 304 305 286 274 292 291 278
52 30 22 357 333 331 341 337 315 305 314 308 291 300 302 302 305 305 291 278 283 278
31 20 327 355 349 320 322 299 310 309 290 286 297 309 327 324 309 304 285 273 272 283
354 355 1 350 296 300 303 309 302 286 296 298 327 338 326 315 310 289 284 284 288 280